Wetbulb
60.04 56.90 55.79 48.96 40.46 37.72 34.75 37.72 39.52 42.81 44.66 47.00 51.12 51.62 54.59 57.12 56.73 51.35 65.99 68.59 69.73 69.99 70.40 71.75 71.49 72.26 72.56 72.60 72.34 72.52 72.69 72.80 72.57 72.17 71.99 71.97 72.08 72.31 72.24 72.38 72.13 71.53 71.65 71.77 71.80 71.65 71.66 71.48 70.98
59.65 57.43 50.10 43.55 36.73 32.56 34.91 40.25 41.87 44.57 47.46 49.38 49.65 57.65 57.01 56.65 63.95 63.50 64.79 69.12 69.58 70.04 70.81 70.90 71.36 71.99 72.44 72.41 72.23 72.31 72.55 72.30 72.00 71.91 72.08 72.15 72.08 71.92 71.96 72.16 71.91 72.13 72.08 71.95 71.68 71.36 71.27 69.96 70.04
54.69 55.30 46.52 39.01 34.39 33.70 35.57 42.37 43.22 46.21 48.12 47.05 53.92 59.69 59.52 59.60 64.17 64.25 67.63 69.06 69.90 69.70 70.77 70.79 70.95 71.45 72.07 72.33 72.22 71.99 71.72 71.50 71.43 71.57 71.95 72.12 71.86 71.72 71.44 71.41 71.63 72.10 72.43 72.35 71.91 71.02 69.28 69.14 69.69
53.33 50.64 46.21 38.64 35.74 38.40 39.37 43.97 44.66 46.65 48.59 50.71 54.85 57.89 61.97 66.86 65.32 66.83 68.83 69.50 69.41 69.78 70.52 70.14 70.24 71.12 72.08 72.32 72.25 71.81 71.44 71.04 71.08 71.26 71.72 71.86 71.87 71.67 71.32 70.78 71.32 71.92 71.91 71.02 69.64 68.89 68.84 69.17 69.46
50.20 45.72 39.28 37.40 37.54 41.11 43.74 45.42 46.42 45.80 47.21 49.70 55.60 57.32 59.12 66.54 68.52 68.64 68.49 68.86 68.62 69.08 70.05 70.05 69.86 70.77 72.08 72.57 72.30 71.70 71.24 70.98 70.87 70.99 71.28 71.64 72.01 71.68 71.15 70.78 70.50 70.70 70.71 70.42 69.37 68.65 68.82 69.35 68.91
47.09 44.46 36.31 34.18 37.62 42.88 44.49 46.60 47.12 46.38 47.19 48.07 49.11 58.27 60.44 67.18 67.61 68.03 68.39 68.03 68.89 69.03 69.82 69.93 70.83 70.84 71.28 71.58 71.25 70.78 70.53 70.41 70.36 70.67 70.88 71.56 71.59 71.08 70.39 70.03 70.10 69.97 69.76 69.32 68.88 68.33 68.45 68.70 68.46
44.22 42.05 37.35 36.95 37.97 40.75 42.92 46.53 46.07 44.85 46.13 50.11 50.54 57.30 60.95 64.72 67.73 68.60 68.92 68.81 68.81 69.34 69.57 69.51 69.91 70.83 70.40 69.75 69.57 69.21 69.64 69.64 69.79 69.86 70.06 70.43 70.15 69.82 69.64 69.09 69.23 69.17 69.09 68.82 68.35 67.84 68.05 68.02 67.74
44.29 42.63 38.22 38.55 38.20 38.03 41.61 43.58 47.02 44.87 44.85 51.59 60.27 57.66 57.44 63.49 68.51 68.92 69.07 68.50 67.93 68.97 69.09 69.18 69.22 69.51 68.90 68.92 68.74 68.72 68.70 68.76 68.81 69.28 68.97 68.79 69.08 69.15 68.54 67.86 68.21 68.66 68.81 68.60 67.93 67.12 67.00 67.02 66.43
46.45 39.61 36.53 38.91 39.12 38.19 41.07 40.54 44.07 45.73 44.99 47.93 50.18 60.74 65.19 67.58 68.09 67.38 66.86 67.32 67.35 67.84 68.04 69.07 69.38 69.62 68.72 68.11 69.13 68.90 69.12 68.72 68.56 68.58 68.36 67.68 67.66 67.39 66.68 66.03 67.14 68.01 68.03 67.97 67.47 66.77 66.16 65.76 65.61
43.03 38.45 37.97 38.95 39.41 37.63 40.34 38.91 41.07 42.95 42.38 43.33 45.55 49.06 63.77 66.55 66.23 65.14 64.91 64.84 65.58 65.56 67.04 67.98 69.08 68.90 68.65 69.52 68.56 67.09 68.36 67.68 66.98 66.17 66.08 65.98 68.55 66.82 66.79 66.16 66.57 66.75 66.55 66.69 66.57 66.13 65.52 64.45 63.42
38.45 35.09 37.20 38.97 40.56 39.02 38.96 38.92 41.87 40.10 38.53 40.89 41.92 44.87 48.97 56.53 64.78 65.42 65.39 65.39 65.44 66.93 67.67 68.20 68.76 68.49 68.29 68.88 68.16 67.98 68.29 67.62 66.16 65.18 64.38 65.35 67.70 68.18 65.71 64.27 63.96 62.83 64.03 61.31 61.85 62.18 61.85 62.42 62.66
34.09 37.06 38.10 38.72 39.45 39.03 37.43 40.34 39.33 38.88 37.36 41.56 43.13 44.15 44.86 45.07 47.04 52.35 65.17 65.41 66.08 66.42 67.52 68.55 69.09 68.75 68.67 68.77 67.98 68.17 68.01 67.68 67.17 64.99 64.25 66.54 66.21 66.73 66.79 63.72 63.00 61.57 60.58 59.10 58.06 57.85 58.94 60.57 62.46
35.25 35.94 37.42 37.69 38.62 39.97 40.24 38.34 37.59 38.78 39.90 42.48 44.08 43.12 41.90 42.17 43.06 45.78 49.43 59.42 67.07 66.56 66.66 68.08 68.97 69.23 68.40 67.87 67.88 67.66 67.38 67.14 67.26 66.04 64.52 65.34 65.38 65.53 66.27 64.29 62.53 61.87 60.65 59.17 57.75 56.89 56.95 57.87 59.50
36.46 35.91 36.13 37.10 36.90 38.99 36.99 37.71 37.93 39.38 39.98 41.79 42.58 41.82 42.31 44.34 44.85 45.95 47.23 46.82 59.81 67.22 66.54 67.30 68.75 69.17 69.41 68.59 67.84 67.54 67.83 67.21 66.92 66.24 64.93 64.23 64.85 65.01 65.26 65.16 62.62 61.55 61.03 59.79 58.40 57.20 56.42 56.38 57.72
35.84 33.19 35.02 36.07 36.29 35.79 35.61 33.98 34.41 38.42 40.13 40.88 41.80 44.17 45.00 45.70 46.89 46.02 47.38 47.76 49.04 49.14 66.44 66.79 67.37 69.20 68.45 68.38 68.62 68.26 67.88 67.45 66.59 65.87 64.96 64.47 63.90 63.60 64.36 63.16 62.34 61.93 61.08 60.12 58.98 57.79 56.85 55.87 57.03
32.37 30.42 26.19 33.54 36.33 36.32 35.34 27.91 36.88 39.35 38.49 40.80 41.90 43.58 44.18 44.68 45.95 46.33 47.11 47.39 49.39 50.32 50.59 65.65 68.63 68.40 68.69 68.55 68.43 68.50 68.16 67.46 66.55 65.87 65.03 64.44 63.92 63.89 63.21 63.07 62.89 62.31 61.18 60.43 59.03 57.79 56.75 55.78 55.91
27.75 22.28 25.15 29.12 34.74 33.96 33.29 29.41 36.15 37.54 38.85 39.99 40.71 41.60 42.99 43.57 45.16 46.29 46.87 46.87 48.14 48.91 49.63 53.92 68.36 68.25 68.23 68.84 68.48 68.18 68.04 67.32 66.64 66.01 65.12 64.11 63.90 63.87 63.46 63.38 62.99 61.66 61.16 60.30 59.44 57.67 56.67 55.44 55.84
22.08 22.47 25.97 24.60 30.45 32.35 28.65 27.85 32.14 34.73 37.76 36.43 38.70 40.18 41.25 42.32 43.42 45.64 45.97 46.69 47.43 47.81 48.98 50.45 53.45 68.10 68.73 68.33 68.13 68.11 67.48 67.06 66.74 65.74 65.03 64.24 63.97 63.68 63.28 63.02 62.35 61.92 60.67 59.97 58.26 57.87 56.77 56.19 56.19
28.49 25.67 22.74 25.75 31.85 30.01 28.42 28.06 30.49 32.54 36.03 37.09 37.97 38.85 40.08 41.74 43.90 44.91 45.17 45.80 46.05 46.54 47.10 48.97 50.81 53.21 56.35 67.66 66.85 66.83 65.64 65.90 66.05 65.67 65.46 64.13 63.86 63.47 63.29 62.90 62.09 61.94 61.13 60.29 59.06 57.72 57.02 56.31 58.17
28.59 25.49 23.75 27.64 32.42 30.95 26.62 26.99 29.43 33.99 35.52 36.67 37.41 38.66 39.97 41.41 42.10 43.22 43.90 44.52 44.56 44.85 45.99 47.39 48.73 51.96 53.17 54.77 64.16 67.32 66.61 66.81 66.41 66.17 65.33 64.61 63.33 63.33 63.14 62.94 62.28 61.57 61.10 59.79 58.61 57.66 55.97 56.80 59.15
27.01 23.47 23.62 24.29 28.89 27.91 26.07 23.37 31.24 35.21 36.70 38.63 39.93 39.21 40.29 40.86 40.41 41.45 42.27 43.04 43.48 43.43 44.56 46.35 48.27 51.25 53.29 54.84 56.82 67.39 66.70 65.24 64.72 63.92 64.70 64.80 63.87 63.26 63.48 63.36 62.93 61.69 61.61 60.23 59.45 58.71 57.42 56.23 56.88
24.92 28.40 27.52 26.21 23.73 18.12 27.32 16.49 26.05 32.82 33.53 36.77 38.14 39.12 38.80 40.33 41.03 41.42 41.62 41.97 42.38 43.29 44.79 45.82 48.24 49.29 51.02 51.71 53.94 59.50 64.99 63.93 64.53 64.64 65.10 65.20 64.94 63.34 63.24 63.23 63.14 62.44 61.91 61.16 60.05 59.62 58.60 56.92 56.28
25.50 29.72 26.74 26.18 22.29 21.42 22.83 17.60 21.89 32.23 31.29 34.01 36.79 39.15 38.60 39.40 40.05 40.69 41.01 41.73 42.75 43.53 44.10 45.30 47.31 48.00 49.09 49.89 51.58 53.32 56.17 64.93 65.60 64.39 64.08 64.32 64.59 64.70 62.66 63.02 62.96 62.45 61.81 61.67 60.72 59.58 58.83 58.73 58.36
30.36 27.45 25.18 24.99 22.67 15.83 23.07 20.05 17.23 26.29 31.49 33.38 36.26 39.22 39.84 40.05 40.58 41.42 41.91 41.84 42.20 43.40 43.68 44.78 45.63 46.38 48.02 48.60 49.34 50.43 52.04 55.00 58.87 63.65 62.98 62.80 64.02 64.46 64.30 62.38 63.46 62.94 62.38 61.50 61.16 60.46 59.45 59.35 59.57
26.04 21.55 7.11 9.72 9.28 10.43 23.62 20.03 21.71 31.16 34.60 34.87 33.17 36.30 39.22 40.71 40.61 39.90 40.48 40.23 41.43 41.95 42.45 44.08 45.03 44.74 46.57 47.51 47.99 49.09 50.31 52.65 54.98 57.18 63.94 63.23 62.73 63.49 63.77 63.16 62.63 63.53 63.14 62.68 62.02 60.98 60.14 59.70 59.39
23.54 23.09 7.01 -1.71 8.58 13.79 23.19 17.39 20.64 33.52 35.20 33.08 34.34 35.77 39.82 40.59 41.08 39.95 40.34 40.23 40.64 41.55 42.04 42.38 44.22 43.91 45.24 46.06 46.79 48.69 49.57 51.75 53.26 55.37 57.95 63.50 63.90 63.55 64.65 64.15 63.50 63.53 64.06 63.53 62.53 61.72 61.03 60.68 59.91
23.57 18.31 25.02 15.25 21.36 16.97 18.53 22.66 29.01 33.50 33.58 30.57 31.08 33.42 34.50 40.13 40.86 40.47 40.87 40.33 40.44 41.01 41.92 41.81 43.02 43.59 44.17 44.85 45.70 46.99 48.63 50.37 52.12 54.68 57.70 59.53 64.10 65.74 64.75 64.94 63.93 63.69 63.88 64.09 63.50 61.84 61.14 60.98 60.20
26.39 27.71 14.15 9.45 -1.82 -3.21 13.49 15.94 15.44 25.85 27.27 28.64 29.17 30.74 33.03 38.89 38.30 40.48 41.92 41.41 41.54 41.48 41.67 42.32 42.73 43.19 43.75 44.05 44.89 45.35 46.59 48.75 50.07 52.85 54.04 55.49 58.70 63.04 66.60 65.27 64.77 64.10 64.10 64.16 63.80 63.21 62.37 60.98 60.75
22.00 19.68 18.66 16.22 15.28 2.79 6.98 13.18 23.09 25.10 26.67 26.67 28.20 32.48 32.75 37.06 38.33 38.30 40.09 41.27 41.65 41.47 41.07 42.14 42.39 42.06 43.39 43.46 44.27 44.24 44.73 46.03 48.35 49.06 50.47 52.90 54.27 57.79 61.15 65.67 65.51 65.04 64.23 64.39 63.80 63.29 63.08 61.80 61.06
25.45 22.38 20.74 5.34 2.29 12.81 14.12 14.33 27.90 26.69 27.82 30.59 31.31 32.67 32.95 38.08 38.45 38.99 39.24 39.98 40.34 40.62 41.63 41.98 40.64 40.39 42.86 42.61 43.71 43.61 43.85 44.33 45.22 47.21 48.03 50.12 51.70 54.76 58.67 60.95 62.01 65.59 65.37 64.76 64.02 63.42 63.27 62.35 61.63
MSLP
1013.58 1013.08 1013.20 1013.30 1014.91 1015.81 1016.19 1015.89 1014.81 1013.64 1011.94 1010.38 1010.22 1010.28 1010.39 1010.70 1011.26 1012.61 1012.30 1012.45 1012.50 1013.69 1014.59 1015.13 1015.36 1015.62 1015.56 1015.67 1015.83 1016.12 1016.52 1016.91 1017.32 1017.72 1018.06 1018.34 1018.64 1018.87 1019.04 1019.21 1019.48 1019.70 1019.89 1020.07 1020.27 1020.41 1020.62 1020.86 1021.09
1013.54 1013.05 1013.31 1014.46 1015.60 1016.71 1016.62 1015.72 1014.59 1013.18 1011.83 1009.85 1009.82 1009.86 1010.14 1010.92 1011.29 1011.91 1012.52 1012.97 1012.68 1013.57 1014.69 1015.47 1015.64 1015.82 1015.89 1016.18 1016.41 1016.63 1017.12 1017.35 1017.73 1018.13 1018.46 1018.73 1018.94 1019.16 1019.39 1019.58 1019.81 1020.10 1020.28 1020.46 1020.65 1020.90 1021.15 1021.32 1021.50
1013.54 1013.47 1014.49 1015.85 1017.18 1017.33 1016.79 1015.85 1014.75 1012.60 1011.17 1010.26 1009.71 1009.36 1010.08 1011.54 1012.00 1012.40 1012.47 1013.09 1013.33 1013.97 1014.83 1015.67 1015.87 1015.95 1016.12 1016.54 1016.89 1017.12 1017.41 1017.96 1018.06 1018.42 1018.76 1018.97 1019.21 1019.45 1019.69 1019.90 1020.12 1020.41 1020.67 1020.91 1021.16 1021.29 1021.50 1021.71 1021.84
1013.77 1014.18 1015.72 1016.56 1017.50 1017.11 1016.52 1015.83 1014.83 1013.05 1010.77 1010.64 1010.42 1010.64 1011.03 1012.12 1012.37 1012.53 1013.31 1013.38 1013.65 1014.57 1015.08 1015.83 1016.12 1016.11 1016.37 1016.85 1017.23 1017.56 1017.79 1018.21 1018.55 1018.64 1018.94 1019.23 1019.47 1019.73 1020.02 1020.24 1020.44 1020.71 1021.08 1021.36 1021.57 1021.70 1021.82 1021.98 1022.28
1014.37 1015.51 1016.76 1017.66 1017.62 1017.00 1016.26 1015.80 1014.91 1013.91 1012.89 1011.59 1011.24 1011.65 1012.15 1013.00 1012.89 1013.00 1013.78 1014.31 1014.38 1014.95 1015.27 1015.97 1016.32 1016.42 1016.60 1017.10 1017.58 1017.86 1018.19 1018.44 1018.86 1019.01 1019.21 1019.42 1019.74 1020.06 1020.34 1020.57 1020.74 1021.01 1021.36 1021.65 1021.87 1022.08 1022.25 1022.38 1022.63
1015.38 1016.41 1017.75 1018.17 1017.79 1017.02 1016.47 1016.02 1015.48 1014.51 1013.71 1012.65 1012.28 1012.65 1013.64 1014.06 1013.94 1014.14 1014.46 1014.78 1014.99 1015.62 1015.98 1016.29 1016.61 1016.81 1016.81 1017.24 1017.79 1018.17 1018.42 1018.81 1019.04 1019.43 1019.51 1019.71 1020.01 1020.33 1020.59 1020.86 1021.07 1021.36 1021.67 1021.96 1022.19 1022.35 1022.52 1022.73 1022.94
1016.07 1017.10 1018.45 1018.41 1018.01 1017.35 1017.45 1016.40 1015.89 1015.46 1014.74 1013.86 1013.56 1013.60 1014.46 1014.75 1014.87 1014.91 1015.02 1015.33 1015.61 1015.92 1016.51 1016.96 1017.16 1017.29 1017.37 1017.51 1017.96 1018.36 1018.62 1019.05 1019.33 1019.55 1019.91 1020.08 1020.31 1020.52 1020.88 1021.07 1021.34 1021.62 1021.93 1022.22 1022.43 1022.61 1022.79 1022.99 1023.21
1016.56 1017.52 1018.69 1018.72 1018.36 1018.50 1017.77 1017.17 1016.58 1016.19 1015.65 1014.98 1013.93 1015.38 1015.50 1015.81 1015.64 1015.74 1015.88 1015.94 1016.35 1016.62 1016.77 1017.19 1017.47 1017.63 1017.93 1018.13 1018.31 1018.57 1018.89 1019.18 1019.62 1019.82 1020.11 1020.46 1020.65 1020.79 1021.05 1021.36 1021.55 1021.77 1022.05 1022.32 1022.54 1022.77 1022.99 1023.15 1023.35
1016.89 1018.20 1019.32 1019.55 1019.53 1019.50 1018.27 1017.99 1017.61 1016.72 1016.37 1016.23 1016.69 1016.69 1016.66 1016.75 1016.12 1016.29 1016.56 1016.82 1016.89 1017.08 1017.25 1017.34 1017.66 1017.88 1018.13 1018.45 1018.72 1018.94 1019.21 1019.47 1019.85 1020.23 1020.36 1020.64 1020.94 1021.25 1021.36 1021.56 1021.73 1021.91 1022.15 1022.38 1022.65 1022.86 1023.09 1023.35 1023.63
1018.18 1019.43 1020.52 1020.75 1020.53 1020.18 1019.29 1018.91 1018.67 1017.90 1018.02 1017.70 1017.16 1016.81 1016.93 1016.80 1017.05 1017.07 1017.18 1017.31 1017.53 1017.52 1017.36 1017.52 1017.65 1017.94 1018.18 1018.57 1019.03 1019.28 1019.47 1019.75 1020.03 1020.48 1020.77 1020.85 1021.07 1021.37 1021.74 1021.89 1021.89 1022.06 1022.35 1022.62 1022.79 1022.91 1023.12 1023.33 1023.70
1019.65 1021.02 1021.34 1021.03 1020.78 1020.48 1020.01 1019.69 1020.01 1019.63 1020.18 1020.50 1019.79 1018.38 1017.67 1017.44 1017.54 1017.39 1017.50 1017.51 1017.59 1017.49 1017.78 1017.80 1017.72 1018.01 1018.14 1018.49 1019.02 1019.44 1019.72 1019.96 1020.21 1020.48 1020.93 1021.13 1021.21 1021.44 1021.71 1022.10 1022.38 1022.42 1022.56 1022.90 1023.12 1023.24 1023.36 1023.47 1023.65
1021.44 1022.01 1021.86 1021.79 1021.30 1020.85 1020.67 1020.29 1021.12 1021.36 1022.17 1021.30 1020.40 1019.71 1018.88 1018.40 1018.13 1017.76 1017.52 1017.34 1017.66 1017.85 1017.48 1017.79 1017.85 1018.06 1018.00 1018.34 1018.72 1019.08 1019.54 1019.96 1020.25 1020.53 1020.80 1021.23 1021.41 1021.44 1021.64 1021.99 1022.29 1022.67 1022.85 1023.14 1023.37 1023.56 1023.65 1023.67 1023.70
1021.66 1022.27 1022.31 1022.20 1021.78 1021.81 1021.24 1021.35 1022.12 1022.27 1021.98 1021.35 1020.72 1020.20 1020.20 1019.79 1019.26 1018.59 1018.19 1017.72 1017.55 1016.83 1016.80 1017.03 1017.48 1017.79 1018.03 1018.24 1018.43 1018.83 1019.13 1019.68 1019.99 1020.51 1020.69 1021.01 1021.41 1021.46 1021.58 1021.93 1022.15 1022.37 1022.82 1023.19 1023.60 1023.79 1023.86 1023.93 1023.95
1022.87 1022.97 1023.02 1022.91 1022.29 1022.35 1022.67 1022.65 1022.70 1023.06 1022.53 1021.93 1021.54 1021.56 1021.29 1021.07 1020.63 1019.66 1019.02 1018.60 1017.98 1017.27 1016.84 1016.87 1017.02 1016.98 1017.41 1017.93 1018.07 1018.33 1018.66 1019.16 1019.72 1020.12 1020.44 1020.70 1021.14 1021.48 1021.66 1021.83 1022.14 1022.29 1022.50 1022.97 1023.41 1023.77 1023.95 1024.03 1024.13
1023.39 1023.83 1023.87 1024.11 1023.70 1023.83 1023.19 1023.73 1024.22 1024.00 1023.11 1022.91 1022.89 1022.85 1022.47 1021.99 1021.40 1021.26 1020.93 1020.13 1019.37 1018.38 1017.40 1017.01 1016.50 1016.48 1017.11 1017.36 1017.81 1017.81 1018.11 1018.56 1019.04 1019.58 1020.01 1020.28 1020.69 1021.20 1021.57 1021.89 1022.01 1022.22 1022.51 1022.78 1023.19 1023.74 1024.05 1024.18 1024.25
1024.59 1025.21 1025.72 1025.52 1025.17 1025.08 1024.07 1025.08 1024.81 1024.40 1024.10 1023.91 1024.11 1023.81 1023.47 1023.12 1022.60 1021.89 1021.39 1020.94 1020.19 1019.27 1018.47 1017.14 1016.80 1016.75 1016.82 1016.86 1016.96 1017.33 1017.78 1018.10 1018.41 1018.88 1019.43 1019.84 1020.13 1020.58 1021.12 1021.53 1021.83 1021.99 1022.37 1022.82 1023.07 1023.36 1024.09 1024.24 1024.31
1026.68 1027.24 1027.14 1026.76 1026.59 1026.20 1025.95 1026.30 1025.42 1025.09 1025.04 1025.15 1024.77 1024.81 1024.33 1023.73 1023.08 1022.39 1021.86 1021.49 1020.96 1020.20 1019.08 1017.70 1016.75 1016.54 1016.70 1016.66 1016.69 1016.96 1017.39 1017.79 1018.04 1018.40 1018.59 1019.15 1019.68 1020.02 1020.46 1020.86 1021.29 1021.87 1022.23 1022.54 1022.96 1023.32 1023.59 1024.02 1024.20
1028.31 1028.18 1027.89 1027.68 1027.52 1027.05 1027.24 1027.27 1026.54 1026.13 1026.15 1026.39 1026.03 1025.35 1025.04 1024.80 1024.21 1023.81 1022.80 1021.89 1021.29 1020.70 1019.94 1018.83 1018.03 1016.90 1016.65 1016.72 1016.94 1016.87 1017.25 1017.51 1017.82 1017.87 1018.00 1018.38 1018.82 1019.46 1019.99 1020.36 1020.74 1021.25 1022.01 1022.40 1022.81 1023.17 1023.33 1023.55 1023.86
1028.43 1028.67 1028.70 1028.22 1027.83 1027.87 1027.93 1027.73 1027.24 1026.91 1026.88 1026.93 1026.83 1026.53 1025.95 1025.61 1025.41 1024.61 1023.87 1022.68 1021.66 1021.00 1020.46 1019.72 1018.94 1018.33 1017.74 1016.56 1016.58 1016.66 1016.70 1016.70 1017.24 1017.65 1017.80 1018.25 1018.57 1018.89 1019.39 1019.82 1020.37 1020.71 1021.10 1021.65 1022.18 1022.71 1023.18 1023.55 1023.63
1028.87 1029.02 1029.16 1028.66 1028.27 1028.43 1028.62 1028.31 1028.00 1027.83 1027.86 1027.66 1027.36 1026.96 1026.80 1026.25 1025.58 1025.05 1024.25 1023.65 1022.75 1022.20 1021.48 1020.71 1019.87 1019.13 1018.35 1017.86 1016.76 1016.03 1016.21 1016.24 1016.33 1016.79 1017.32 1017.75 1018.21 1018.39 1018.53 1018.73 1019.27 1019.84 1020.45 1020.85 1021.41 1022.09 1022.87 1023.06 1023.27
1029.58 1029.91 1029.96 1030.00 1029.33 1028.84 1028.95 1029.30 1029.02 1028.49 1027.99 1027.65 1027.55 1027.53 1027.36 1027.34 1026.86 1026.17 1025.31 1024.55 1023.88 1022.87 1022.12 1021.38 1020.68 1019.73 1018.85 1018.26 1017.01 1015.92 1015.86 1015.90 1015.97 1016.21 1016.41 1016.54 1016.98 1017.53 1017.96 1018.29 1018.57 1019.02 1019.41 1019.98 1020.36 1020.98 1021.71 1022.45 1022.92
1030.23 1030.27 1030.26 1030.20 1030.26 1030.34 1030.01 1030.73 1030.00 1029.34 1028.56 1028.15 1027.97 1027.78 1027.82 1027.59 1027.28 1027.06 1026.34 1025.39 1024.69 1023.84 1022.84 1022.03 1021.08 1020.31 1019.39 1018.77 1017.74 1016.78 1015.64 1015.50 1015.24 1015.31 1015.58 1015.83 1016.25 1017.00 1017.61 1018.05 1018.30 1018.50 1018.71 1019.09 1019.43 1019.91 1020.49 1021.26 1021.88
1030.90 1030.60 1030.76 1030.75 1031.10 1031.24 1031.09 1031.29 1030.58 1029.98 1029.33 1028.76 1028.29 1028.04 1027.93 1027.81 1027.60 1027.24 1026.99 1026.33 1025.34 1024.45 1023.34 1022.47 1021.59 1020.68 1020.11 1019.30 1018.59 1017.89 1016.75 1015.54 1014.86 1015.01 1015.00 1015.46 1015.64 1015.85 1016.49 1017.00 1017.65 1018.02 1018.22 1018.48 1018.71 1019.20 1019.59 1020.00 1020.45
1031.36 1031.18 1031.65 1031.89 1032.31 1032.58 1032.13 1031.94 1031.46 1030.60 1029.87 1029.01 1028.41 1028.14 1027.93 1027.61 1027.56 1027.42 1027.05 1026.62 1025.78 1024.71 1023.78 1022.91 1022.03 1021.31 1020.43 1019.73 1018.96 1018.48 1017.73 1016.79 1015.76 1014.98 1014.85 1014.82 1015.04 1015.21 1015.44 1015.93 1016.42 1017.04 1017.42 1017.74 1017.74 1018.26 1018.84 1019.11 1019.50
1032.28 1032.58 1033.61 1034.18 1034.24 1033.93 1032.83 1032.22 1030.96 1030.40 1029.67 1029.21 1028.79 1028.26 1027.89 1027.68 1027.50 1027.42 1026.98 1026.68 1026.10 1025.26 1024.43 1023.23 1022.41 1021.80 1021.02 1020.21 1019.53 1018.95 1018.37 1017.65 1016.86 1016.03 1014.95 1014.57 1014.56 1014.51 1014.46 1014.78 1015.41 1015.71 1016.00 1016.48 1016.97 1017.56 1017.88 1018.18 1018.58
1033.61 1034.26 1035.42 1036.58 1036.65 1035.32 1033.56 1032.47 1030.99 1030.08 1029.56 1029.07 1028.97 1028.52 1027.98 1027.89 1027.66 1027.46 1026.98 1026.56 1026.27 1025.67 1024.95 1024.15 1022.81 1021.88 1021.33 1020.59 1019.97 1019.27 1018.76 1018.07 1017.34 1016.59 1015.66 1014.45 1013.66 1013.56 1013.66 1013.89 1014.14 1014.44 1014.88 1015.32 1015.80 1016.34 1016.82 1017.43 1017.73
1034.30 1035.25 1036.20 1037.25 1037.71 1036.99 1034.96 1032.98 1031.08 1030.08 1029.67 1029.38 1029.12 1028.38 1028.05 1027.98 1027.76 1027.37 1026.79 1026.42 1026.12 1025.65 1025.15 1024.44 1023.68 1022.58 1021.32 1020.98 1020.30 1019.63 1018.91 1018.46 1017.72 1016.78 1015.72 1014.88 1013.84 1012.94 1012.92 1013.02 1013.20 1013.38 1013.81 1014.26 1014.74 1015.17 1015.46 1016.16 1016.60
1034.77 1035.98 1037.06 1038.54 1039.45 1039.11 1036.26 1034.02 1032.12 1030.64 1029.84 1029.56 1029.01 1028.62 1028.13 1027.87 1027.76 1027.20 1026.69 1026.31 1025.74 1025.45 1025.08 1024.36 1023.66 1022.99 1022.25 1020.86 1020.52 1020.10 1019.35 1018.59 1017.97 1017.13 1016.11 1015.21 1014.22 1013.17 1012.26 1012.16 1012.46 1012.59 1012.70 1013.26 1013.68 1014.05 1014.36 1014.90 1015.31
1035.85 1036.98 1038.42 1039.57 1040.24 1040.01 1038.22 1034.50 1031.91 1030.76 1030.06 1029.64 1028.94 1028.41 1028.06 1027.86 1027.69 1027.20 1026.67 1026.08 1025.68 1025.27 1024.90 1024.37 1023.81 1023.14 1022.48 1021.76 1020.52 1020.06 1019.61 1018.80 1018.00 1017.28 1016.46 1015.49 1014.62 1013.71 1012.83 1011.96 1011.54 1011.72 1011.87 1012.18 1012.60 1012.81 1013.08 1013.70 1013.99
1036.56 1037.73 1038.91 1040.58 1041.56 1040.19 1038.56 1034.68 1031.36 1030.68 1029.89 1029.31 1028.69 1028.13 1027.77 1027.66 1027.59 1027.14 1026.65 1026.10 1025.61 1025.12 1024.66 1024.34 1023.89 1023.26 1022.59 1021.69 1021.04 1020.52 1019.86 1019.09 1018.22 1017.34 1016.44 1015.76 1014.84 1014.00 1013.12 1012.37 1011.78 1011.17 1011.09 1011.28 1011.47 1011.70 1011.90 1012.43 1012.59
Wind_Speed
9 7 1 5 6 7 3 4 3 8 9 4 4 4 5 3 4 5 4 6 18 17 11 9 13 17 18 18 19 20 20 20 20 20 19 18 18 17 17 16 17 19 19 20 20 20 22 20 18
5 4 4 3 7 6 4 5 9 6 7 12 5 3 5 2 3 7 5 6 17 16 11 7 12 16 19 19 19 20 19 20 20 19 19 18 18 18 18 17 17 18 19 20 21 21 19 16 14
3 2 5 6 4 4 2 6 8 12 7 3 6 6 4 3 6 7 9 13 15 14 12 7 11 15 17 18 18 19 20 17 19 19 18 18 18 18 18 17 17 18 18 19 18 15 12 11 13
3 5 5 7 3 1 1 7 8 15 13 9 5 5 5 6 2 3 10 15 17 12 11 9 10 14 16 16 17 17 18 17 16 18 18 18 18 18 17 16 16 17 16 16 14 12 11 12 13
4 4 5 5 4 4 4 7 7 11 10 9 8 4 5 6 7 14 12 10 13 11 11 10 10 13 17 16 16 16 15 16 15 16 16 17 17 16 16 15 15 15 15 13 12 10 11 14 14
5 4 6 3 3 5 4 12 9 10 10 10 13 3 4 3 9 8 9 8 8 10 9 9 11 11 15 16 14 14 14 13 14 12 14 15 15 15 15 15 14 14 14 12 10 10 12 14 14
6 5 4 3 1 4 7 14 11 6 11 14 8 5 2 10 7 7 8 9 8 9 9 5 6 8 11 13 12 12 13 12 12 12 11 12 12 13 13 14 14 14 14 12 10 11 13 13 13
5 5 3 3 1 4 7 9 6 8 6 9 15 8 6 4 10 10 9 9 8 7 10 9 5 5 5 7 11 12 12 12 10 11 11 9 10 11 12 12 13 13 14 12 11 12 12 12 13
2 6 3 6 8 7 8 8 8 6 4 8 10 7 3 6 9 10 8 6 5 5 6 9 9 5 5 5 7 9 11 11 11 9 11 9 4 5 7 8 11 12 13 13 12 12 11 9 10
6 5 6 5 3 4 8 9 8 8 21 14 25 20 6 6 5 6 5 6 8 4 6 6 9 9 6 5 5 5 6 4 5 5 5 4 8 4 3 4 10 11 12 12 11 11 10 8 5
6 5 4 5 4 5 8 10 9 17 15 12 15 18 12 7 5 2 4 7 9 7 4 5 11 7 8 8 5 3 3 4 3 6 5 4 7 6 3 2 1 3 8 4 5 5 3 5 5
8 3 5 6 7 6 4 5 14 16 4 9 9 11 13 16 13 11 5 9 7 9 8 8 9 11 11 7 7 8 6 7 6 4 7 6 6 7 6 3 4 2 3 5 4 3 4 5 5
8 7 4 5 7 18 5 7 9 18 11 9 12 16 16 16 17 15 14 8 7 15 12 11 9 11 11 7 7 7 8 8 9 6 6 7 7 8 7 4 4 4 3 3 4 4 4 3 4
2 4 5 11 11 14 7 10 9 16 11 13 16 17 16 17 18 18 21 19 10 8 10 10 13 13 13 9 10 9 8 10 9 9 7 8 7 7 8 7 4 4 4 4 4 5 4 4 3
3 7 7 13 11 6 7 9 10 8 12 14 15 14 16 16 17 17 15 16 17 15 8 13 13 14 11 12 10 9 10 11 10 10 9 10 9 9 8 5 4 4 3 5 4 4 2 2 2
6 8 6 6 12 6 7 6 10 13 10 16 15 14 13 15 14 16 17 15 16 16 15 11 11 15 13 13 10 9 10 9 10 9 9 12 11 10 8 6 5 4 4 3 3 3 4 3 3
9 3 4 7 6 5 8 5 14 11 9 14 14 11 13 16 17 19 19 17 15 15 17 19 10 14 14 10 8 9 10 9 9 8 9 13 12 11 9 8 6 5 4 4 3 3 3 3 3
4 4 4 4 7 5 4 4 8 8 10 7 10 14 13 14 17 16 19 18 16 16 16 17 15 8 11 9 8 7 6 8 9 9 9 13 12 13 10 8 8 8 5 4 3 4 3 3 4
5 4 3 3 4 5 6 6 9 7 9 10 10 12 15 15 12 15 15 17 18 17 18 17 16 15 11 5 8 8 10 9 8 8 10 9 10 13 12 9 8 9 10 9 8 4 5 4 3
8 6 5 5 6 5 4 6 7 7 5 6 8 13 13 16 18 19 20 18 18 16 16 16 16 14 10 6 7 7 7 8 8 7 8 9 12 13 13 13 11 11 8 9 10 8 3 4 5
4 5 5 5 5 3 2 5 7 5 4 8 11 7 8 11 14 17 19 18 17 19 18 16 15 15 12 14 9 7 3 2 6 7 9 12 15 14 14 13 11 11 11 10 11 11 12 6 5
4 5 5 7 5 1 3 4 4 7 8 13 10 10 9 10 10 11 15 18 17 17 15 15 14 13 13 14 12 13 9 9 8 9 9 9 12 13 13 12 12 11 10 11 11 10 11 6 10
5 9 6 3 1 3 3 4 4 5 7 12 10 9 8 6 7 12 11 13 16 15 15 13 13 13 13 12 12 9 11 8 6 5 9 10 9 13 14 14 13 12 9 11 11 11 13 11 8
7 5 6 4 3 3 1 3 4 2 3 7 9 8 9 10 7 9 8 8 12 14 15 14 14 13 14 13 12 12 12 12 8 6 7 6 8 9 14 14 13 14 12 12 12 12 13 13 12
8 5 5 7 6 5 4 4 6 5 4 4 9 11 8 10 7 8 11 8 10 13 15 16 15 14 13 13 13 11 12 12 11 10 7 7 8 8 13 15 14 13 15 14 12 12 13 13 12
4 3 6 5 2 5 7 4 7 3 4 3 5 7 6 8 8 7 9 8 8 10 12 13 18 16 13 12 13 11 11 9 9 10 9 8 9 11 13 14 16 18 17 16 14 11 12 12 12
5 5 1 4 2 3 3 6 7 5 7 3 7 12 10 5 8 8 9 8 8 9 11 11 10 16 17 12 10 11 11 11 11 12 11 7 11 9 12 14 16 18 18 17 16 13 14 13 13
5 0 2 5 4 4 6 5 6 6 8 7 10 12 14 5 7 8 8 9 7 6 8 9 10 9 12 17 10 10 12 12 11 11 12 13 13 13 12 13 15 16 17 17 15 14 15 15 12
2 2 6 4 3 5 3 7 6 8 7 9 10 14 13 7 7 8 8 10 9 7 6 7 9 11 10 11 16 12 11 13 12 11 12 12 13 14 11 10 12 15 16 17 15 17 17 17 17
1 3 4 7 6 3 3 9 7 7 8 12 17 17 13 6 7 8 9 9 9 8 6 6 7 8 10 11 11 13 12 13 13 13 14 13 14 14 14 10 10 11 15 15 18 19 18 17 20
Wind_Direction
319 310 262 41 59 64 54 29 261 312 327 158 279 132 169 85 173 203 83 112 123 127 141 138 136 137 125 120 115 115 116 118 118 118 117 117 117 114 109 107 108 110 110 109 107 104 101 94 89
314 333 41 72 79 63 315 290 336 275 259 296 207 158 62 54 55 108 99 137 126 128 135 136 137 133 125 124 123 121 121 123 123 123 123 122 117 113 110 110 109 110 113 112 109 107 101 93 89
289 18 72 79 86 91 2 320 304 308 326 318 6 48 37 18 47 141 125 132 123 126 134 138 139 130 124 124 126 125 126 128 128 127 125 121 118 114 112 111 111 112 111 110 112 109 103 97 104
15 11 36 74 71 123 2 316 336 346 337 40 350 42 58 3 68 116 133 138 126 128 128 135 139 129 124 125 127 127 127 128 130 129 126 123 119 116 114 112 116 114 114 113 109 98 96 105 108
31 56 53 75 337 296 323 348 348 354 3 333 348 355 53 31 57 110 127 133 127 131 133 140 141 137 130 129 131 130 128 128 130 130 129 125 122 120 116 114 114 115 114 110 103 96 97 104 106
46 91 56 98 323 306 350 352 350 9 353 325 10 23 58 41 57 97 110 107 113 124 133 140 145 144 135 132 133 132 129 129 130 132 130 128 125 122 120 119 115 116 112 111 108 103 115 112 109
97 74 138 146 354 27 353 328 15 339 11 4 308 36 72 48 59 66 81 83 91 119 134 126 138 137 133 131 134 135 133 133 133 132 131 129 128 127 127 125 125 122 117 116 109 109 116 116 117
96 87 80 11 353 49 333 351 333 37 9 312 8 14 352 32 69 84 86 85 85 106 143 156 124 122 127 136 136 139 138 137 137 137 133 131 130 135 134 131 132 130 126 125 118 116 120 128 130
85 61 53 29 28 316 322 21 341 305 4 47 19 28 32 50 85 99 112 123 110 112 148 163 163 135 126 119 142 135 137 136 134 139 137 128 124 120 134 142 142 137 133 132 131 128 130 127 129
60 78 41 52 38 315 323 18 344 11 27 0 357 357 30 79 59 95 146 165 189 196 170 161 171 173 144 140 142 133 144 140 135 130 146 126 150 127 119 153 148 141 132 130 133 136 128 118 129
16 69 299 3 14 337 323 10 19 34 21 356 337 332 342 16 357 181 145 202 209 202 203 207 195 172 167 172 152 149 147 145 137 141 141 139 162 170 137 122 75 133 128 122 117 120 127 138 142
96 44 14 346 355 15 10 304 70 48 319 304 331 354 2 4 354 338 266 188 185 220 202 201 204 201 190 175 167 172 173 179 181 171 147 163 176 181 176 162 164 175 147 138 135 138 151 154 155
54 8 52 0 53 31 340 39 83 23 346 345 4 15 16 7 357 356 350 313 191 200 202 195 197 195 199 177 174 174 182 188 191 178 171 163 183 189 186 184 176 173 156 150 145 149 165 175 164
12 37 22 20 5 25 45 23 55 350 341 17 23 18 20 24 9 4 3 354 335 233 200 196 204 210 199 190 186 182 183 189 194 193 188 172 174 187 196 197 201 189 171 164 163 164 178 191 181
41 43 24 27 359 26 325 28 9 346 351 30 32 31 25 19 18 10 354 355 354 344 283 221 208 200 203 207 194 195 197 191 192 195 187 184 177 177 190 194 187 198 187 175 162 151 136 191 214
46 49 33 360 26 358 33 321 348 356 16 22 34 24 26 17 9 3 0 357 355 349 346 271 210 214 205 206 201 201 202 198 197 189 183 189 187 184 181 184 200 187 174 177 181 171 161 191 208
16 71 52 348 55 11 53 340 317 341 31 35 16 26 15 7 10 2 354 353 354 352 351 356 221 215 212 222 205 201 209 205 204 195 189 190 192 188 188 191 189 176 182 185 179 190 163 170 190
352 36 6 24 339 24 70 271 296 340 44 31 30 10 16 14 358 357 347 349 353 357 358 1 4 274 214 210 225 223 208 209 213 206 203 191 192 190 192 196 189 176 180 193 168 192 186 172 173
93 82 47 312 345 35 355 319 332 360 36 24 23 23 9 10 348 351 352 347 352 0 360 359 357 350 355 225 211 211 214 207 208 213 213 198 202 193 193 197 192 190 189 195 193 173 189 215 164
57 38 358 312 338 2 27 332 343 34 8 13 7 21 15 358 359 357 350 352 353 349 351 354 349 348 344 327 299 217 212 216 210 195 200 200 203 203 200 198 195 192 191 186 186 184 165 203 184
46 55 321 262 325 2 57 3 359 322 2 12 17 5 14 11 359 349 350 348 347 347 347 347 344 346 352 343 312 247 189 196 190 198 206 205 203 207 210 206 201 193 193 196 194 190 191 193 202
352 356 303 299 33 319 44 280 327 333 356 7 1 359 338 355 2 353 345 344 346 338 338 341 342 346 351 349 347 333 231 228 218 214 218 208 199 206 212 216 209 205 203 200 197 191 195 158 201
259 311 280 302 151 66 6 71 275 326 354 335 323 332 342 347 348 353 343 335 331 339 337 337 345 344 347 352 356 351 350 285 232 217 210 209 201 203 207 209 209 210 206 212 196 194 196 202 203
296 319 30 37 54 44 131 82 294 314 274 309 316 334 330 347 347 340 328 320 330 335 339 338 349 346 345 348 353 354 348 332 333 277 217 199 207 207 206 206 207 215 213 210 206 199 199 203 212
7 32 5 8 9 217 338 8 231 196 220 316 321 311 320 343 333 332 335 332 330 337 338 337 345 343 350 348 349 349 344 334 329 320 289 227 208 209 210 203 207 212 214 216 209 203 210 206 209
333 62 134 186 287 296 322 252 262 217 250 258 327 310 319 338 324 313 311 327 324 330 334 333 334 342 347 353 344 345 344 345 331 320 303 295 230 221 215 209 209 213 216 217 206 204 211 208 215
339 47 134 110 11 296 305 308 312 214 251 314 319 344 345 329 316 308 310 315 320 328 327 325 324 333 339 349 348 343 343 342 331 324 320 300 303 240 217 207 211 216 217 216 207 209 208 209 210
75 327 58 10 58 319 302 286 245 288 287 325 321 332 327 305 309 309 311 308 310 308 312 317 321 323 329 334 353 348 338 337 334 331 338 335 327 321 252 213 211 218 220 219 212 212 215 207 212
3 22 53 110 116 159 293 266 224 265 287 305 296 313 312 288 297 308 307 312 304 296 309 311 325 332 336 335 334 345 345 338 337 338 339 335 331 327 314 286 223 222 218 219 217 216 214 213 214
212 176 123 116 275 228 157 271 283 289 298 308 310 309 310 295 299 302 305 310 313 311 313 321 328 334 337 341 337 333 341 342 338 338 341 338 332 330 322 296 295 261 231 219 215 223 221 213 218